BAW9174 EGLL-EGFF

Flight info

Callsign BAW9174
Flight time 0h 33m
Altitude 18000
Route CPT Q63 SAWPE
Aircraft B78X/H-SDE1E2E3FGHIJ2J3J4J5M1RWXY/LB1D1

Departure

Time 2026-05-05 10:43
Airport London Heathrow Airport (EGLL)

Arrival

Time 2026-05-05 11:16
Airport Cardiff International Airport (EGFF)
Time Latitude Longitude Altitude Speed Heading
2026-05-05 09:55 51.47224 -0.47490 90 ft 0 kts 270°
2026-05-05 10:30 51.47224 -0.47489 90 ft 1 kts 270°
2026-05-05 10:30 51.47224 -0.47451 91 ft 6 kts 269°
2026-05-05 10:30 51.47225 -0.47408 93 ft 6 kts 269°
2026-05-05 10:30 51.47227 -0.47372 92 ft 6 kts 240°
2026-05-05 10:31 51.47244 -0.47355 92 ft 6 kts 177°
2026-05-05 10:31 51.47261 -0.47356 92 ft 1 kts 180°
2026-05-05 10:38 51.47260 -0.47356 92 ft 1 kts 180°
2026-05-05 10:38 51.47203 -0.47356 92 ft 20 kts 180°
2026-05-05 10:38 51.47052 -0.47354 93 ft 20 kts 179°
2026-05-05 10:38 51.46909 -0.47352 90 ft 21 kts 181°
2026-05-05 10:39 51.46765 -0.47350 90 ft 20 kts 179°
2026-05-05 10:39 51.46649 -0.47411 90 ft 17 kts 242°
2026-05-05 10:39 51.46654 -0.47570 89 ft 14 kts 272°
2026-05-05 10:39 51.46656 -0.47730 90 ft 15 kts 271°
2026-05-05 10:40 51.46657 -0.47879 91 ft 5 kts 266°
2026-05-05 10:40 51.46655 -0.47937 91 ft 5 kts 266°
2026-05-05 10:40 51.46653 -0.47995 91 ft 8 kts 266°
2026-05-05 10:40 51.46652 -0.48163 92 ft 19 kts 270°
2026-05-05 10:41 51.46652 -0.48374 93 ft 19 kts 270°
2026-05-05 10:41 51.46652 -0.48585 93 ft 19 kts 268°
2026-05-05 10:41 51.46622 -0.48747 94 ft 14 kts 216°
2026-05-05 10:41 51.46520 -0.48771 93 ft 14 kts 161°
2026-05-05 10:42 51.46477 -0.48455 95 ft 34 kts 90°
2026-05-05 10:42 51.46480 -0.47596 86 ft 121 kts 89°
2026-05-05 10:42 51.46482 -0.45839 214 ft 186 kts 91°
2026-05-05 10:43 51.46408 -0.43623 1265 ft 207 kts 91°
2026-05-05 10:43 51.46329 -0.41501 3291 ft 161 kts 89°
2026-05-05 10:43 51.46294 -0.39593 4307 ft 192 kts 87°
2026-05-05 10:43 51.46207 -0.37174 4634 ft 246 kts 102°
2026-05-05 10:44 51.45141 -0.34585 4569 ft 319 kts 137°
2026-05-05 10:44 51.42999 -0.32784 4557 ft 380 kts 160°
2026-05-05 10:44 51.40308 -0.32201 4542 ft 384 kts 179°
2026-05-05 10:44 51.37796 -0.33002 4524 ft 357 kts 201°
2026-05-05 10:45 51.35755 -0.34954 4527 ft 330 kts 216°
2026-05-05 10:45 51.34029 -0.37168 4521 ft 306 kts 219°
2026-05-05 10:45 51.32484 -0.39300 4730 ft 279 kts 220°
2026-05-05 10:45 51.31018 -0.41367 5214 ft 285 kts 221°
2026-05-05 10:46 51.29533 -0.43457 5707 ft 281 kts 221°
2026-05-05 10:46 51.28162 -0.45649 6337 ft 280 kts 240°
2026-05-05 10:46 51.27754 -0.48610 7457 ft 277 kts 278°
2026-05-05 10:46 51.28494 -0.51399 8608 ft 278 kts 312°
2026-05-05 10:47 51.29945 -0.53474 9713 ft 283 kts 321°
2026-05-05 10:47 51.31465 -0.55533 10628 ft 294 kts 318°
2026-05-05 10:47 51.32924 -0.57960 11343 ft 312 kts 311°
2026-05-05 10:47 51.34223 -0.60866 11978 ft 331 kts 301°
2026-05-05 10:48 51.35196 -0.64322 12589 ft 350 kts 291°
2026-05-05 10:48 51.35967 -0.68071 13419 ft 360 kts 288°
2026-05-05 10:48 51.36731 -0.71928 13922 ft 370 kts 290°
2026-05-05 10:48 51.37644 -0.75795 13985 ft 369 kts 293°
2026-05-05 10:49 51.38611 -0.79594 13995 ft 368 kts 292°
2026-05-05 10:49 51.39525 -0.83420 13993 ft 368 kts 291°
2026-05-05 10:49 51.40401 -0.87260 14317 ft 367 kts 290°
2026-05-05 10:49 51.41299 -0.91116 14689 ft 372 kts 291°
2026-05-05 10:50 51.42222 -0.95005 15061 ft 375 kts 291°
2026-05-05 10:50 51.43147 -0.98933 15442 ft 376 kts 291°
2026-05-05 10:50 51.44063 -1.02868 15822 ft 378 kts 290°
2026-05-05 10:50 51.44983 -1.06827 16205 ft 380 kts 290°
2026-05-05 10:51 51.45911 -1.10804 16593 ft 382 kts 290°
2026-05-05 10:51 51.46842 -1.14803 16984 ft 384 kts 290°
2026-05-05 10:51 51.47775 -1.18829 17382 ft 387 kts 290°
2026-05-05 10:51 51.48716 -1.22895 17786 ft 388 kts 289°
2026-05-05 10:52 51.49655 -1.26957 17984 ft 392 kts 289°
2026-05-05 10:52 51.50603 -1.31066 17978 ft 390 kts 289°
2026-05-05 10:52 51.51543 -1.35142 17979 ft 392 kts 289°
2026-05-05 10:52 51.52483 -1.39245 17979 ft 391 kts 289°
2026-05-05 10:53 51.53424 -1.43341 17974 ft 390 kts 289°
2026-05-05 10:53 51.54359 -1.47427 17980 ft 390 kts 289°
2026-05-05 10:53 51.55296 -1.51527 17986 ft 390 kts 289°
2026-05-05 10:53 51.56229 -1.55621 17988 ft 390 kts 288°
2026-05-05 10:54 51.57158 -1.59711 17994 ft 389 kts 289°
2026-05-05 10:54 51.58086 -1.63790 17999 ft 389 kts 289°
2026-05-05 10:54 51.58970 -1.67896 17999 ft 388 kts 282°
2026-05-05 10:54 51.59327 -1.72169 18012 ft 385 kts 272°
2026-05-05 10:55 51.59401 -1.76463 18010 ft 384 kts 270°
2026-05-05 10:55 51.59500 -1.80756 18017 ft 384 kts 274°
2026-05-05 10:55 51.59823 -1.85032 18003 ft 385 kts 278°
2026-05-05 10:55 51.60226 -1.89284 17998 ft 385 kts 276°
2026-05-05 10:56 51.60538 -1.93564 18010 ft 385 kts 274°
2026-05-05 10:56 51.60801 -1.97847 18008 ft 385 kts 275°
2026-05-05 10:56 51.61095 -2.02117 18022 ft 384 kts 276°
2026-05-05 10:56 51.61064 -2.06390 18031 ft 382 kts 258°
2026-05-05 10:57 51.60146 -2.10375 18028 ft 381 kts 238°
2026-05-05 10:57 51.58490 -2.13649 18007 ft 380 kts 223°
2026-05-05 10:57 51.56517 -2.16470 18006 ft 380 kts 220°
2026-05-05 10:57 51.54523 -2.19258 18004 ft 379 kts 221°
2026-05-05 10:58 51.52673 -2.22281 18007 ft 379 kts 229°
2026-05-05 10:58 51.51059 -2.25634 18011 ft 380 kts 233°
2026-05-05 10:58 51.49512 -2.29077 18006 ft 380 kts 232°
2026-05-05 10:58 51.47871 -2.32398 18008 ft 378 kts 229°
2026-05-05 10:59 51.46175 -2.35629 18008 ft 380 kts 229°
2026-05-05 10:59 51.45062 -2.37797 18013 ft 381 kts 230°
2026-05-05 10:59 51.43412 -2.41122 18011 ft 381 kts 231°
2026-05-05 10:59 51.41209 -2.45587 18020 ft 382 kts 233°
2026-05-05 11:00 51.40353 -2.48044 18037 ft 383 kts 247°
2026-05-05 11:00 51.39672 -2.52160 17527 ft 384 kts 261°
2026-05-05 11:00 51.39443 -2.56409 17004 ft 380 kts 266°
2026-05-05 11:00 51.39295 -2.60624 16485 ft 377 kts 265°
2026-05-05 11:01 51.38969 -2.64753 15983 ft 373 kts 260°
2026-05-05 11:01 51.38457 -2.68819 15479 ft 370 kts 259°
2026-05-05 11:01 51.38102 -2.72866 14988 ft 366 kts 271°
2026-05-05 11:01 51.38205 -2.76923 14506 ft 363 kts 275°
2026-05-05 11:02 51.38359 -2.80944 14026 ft 361 kts 275°
2026-05-05 11:02 51.38450 -2.84951 13506 ft 359 kts 272°
2026-05-05 11:02 51.38505 -2.88935 12980 ft 356 kts 272°
2026-05-05 11:02 51.38745 -2.92838 12459 ft 351 kts 287°
2026-05-05 11:03 51.39834 -2.96261 11982 ft 344 kts 307°
2026-05-05 11:03 51.41246 -2.99335 11481 ft 342 kts 307°
2026-05-05 11:03 51.42660 -3.02386 10995 ft 340 kts 307°
2026-05-05 11:03 51.44072 -3.05408 10508 ft 337 kts 307°
2026-05-05 11:04 51.45475 -3.08407 10032 ft 335 kts 307°
2026-05-05 11:04 51.46867 -3.11380 9519 ft 332 kts 308°
2026-05-05 11:04 51.48239 -3.14327 8995 ft 328 kts 308°
2026-05-05 11:04 51.49593 -3.17245 8480 ft 324 kts 308°
2026-05-05 11:05 51.51026 -3.19989 7942 ft 319 kts 321°
2026-05-05 11:05 51.53023 -3.21391 7479 ft 316 kts 352°
2026-05-05 11:05 51.55181 -3.20969 7005 ft 318 kts 21°
2026-05-05 11:05 51.56935 -3.18824 6541 ft 322 kts 50°
2026-05-05 11:06 51.57797 -3.15571 6053 ft 327 kts 79°
2026-05-05 11:06 51.57800 -3.11874 5536 ft 326 kts 93°
2026-05-05 11:06 51.57523 -3.08279 5048 ft 322 kts 97°
2026-05-05 11:06 51.57179 -3.04775 4550 ft 315 kts 97°
2026-05-05 11:07 51.56766 -3.01342 4068 ft 307 kts 105°
2026-05-05 11:07 51.55669 -2.98538 3986 ft 291 kts 137°
2026-05-05 11:07 51.53927 -2.97196 3973 ft 270 kts 171°
2026-05-05 11:07 51.52169 -2.97062 3964 ft 244 kts 181°
2026-05-05 11:08 51.50458 -2.97177 3978 ft 244 kts 184°
2026-05-05 11:08 51.48812 -2.97327 3976 ft 235 kts 184°
2026-05-05 11:08 51.47179 -2.97484 4028 ft 233 kts 184°
2026-05-05 11:08 51.45567 -2.97635 4021 ft 226 kts 184°
2026-05-05 11:09 51.44061 -2.97779 4011 ft 213 kts 184°
2026-05-05 11:09 51.42576 -2.97919 4015 ft 213 kts 184°
2026-05-05 11:09 51.41096 -2.98057 4015 ft 211 kts 184°
2026-05-05 11:09 51.39667 -2.98186 4005 ft 203 kts 184°
2026-05-05 11:10 51.38258 -2.98319 4009 ft 202 kts 184°
2026-05-05 11:10 51.36860 -2.98446 4013 ft 201 kts 184°
2026-05-05 11:10 51.35497 -2.98865 3972 ft 199 kts 205°
2026-05-05 11:10 51.34276 -2.99889 4001 ft 199 kts 210°
2026-05-05 11:11 51.33184 -3.01196 3944 ft 194 kts 239°
2026-05-05 11:11 51.32814 -3.03193 4002 ft 189 kts 264°
2026-05-05 11:11 51.32616 -3.05294 3921 ft 193 kts 265°
2026-05-05 11:11 51.32414 -3.07401 3667 ft 191 kts 265°
2026-05-05 11:12 51.32260 -3.09493 3418 ft 187 kts 274°
2026-05-05 11:12 51.32519 -3.11497 3195 ft 183 kts 291°
2026-05-05 11:12 51.33029 -3.13280 2972 ft 172 kts 299°
2026-05-05 11:12 51.33543 -3.14961 2749 ft 164 kts 301°
2026-05-05 11:13 51.34038 -3.16537 2537 ft 157 kts 301°
2026-05-05 11:13 51.34522 -3.18070 2320 ft 158 kts 301°
2026-05-05 11:13 51.35019 -3.19644 2109 ft 157 kts 301°
2026-05-05 11:13 51.35514 -3.21205 1888 ft 158 kts 301°
2026-05-05 11:14 51.36006 -3.22767 1675 ft 157 kts 301°
2026-05-05 11:14 51.36500 -3.24331 1455 ft 157 kts 301°
2026-05-05 11:14 51.36990 -3.25884 1231 ft 156 kts 301°
2026-05-05 11:14 51.37473 -3.27413 1014 ft 153 kts 301°
2026-05-05 11:15 51.37950 -3.28920 819 ft 150 kts 299°
2026-05-05 11:15 51.38410 -3.30418 644 ft 153 kts 297°
2026-05-05 11:15 51.38906 -3.31907 406 ft 150 kts 298°
2026-05-05 11:15 51.39339 -3.33388 239 ft 132 kts 297°
2026-05-05 11:16 51.39700 -3.34446 231 ft 84 kts 298°
2026-05-05 11:16 51.39898 -3.35081 226 ft 46 kts 296°
2026-05-05 11:16 51.39988 -3.35373 226 ft 13 kts 294°
2026-05-05 11:16 51.40009 -3.35449 228 ft 11 kts 294°
2026-05-05 11:17 51.40055 -3.35603 227 ft 15 kts 300°
2026-05-05 11:17 51.40124 -3.35710 225 ft 14 kts 321°
2026-05-05 11:17 51.40133 -3.35818 227 ft 5 kts 225°
2026-05-05 11:17 51.40118 -3.35815 228 ft 4 kts 166°
2026-05-05 11:18 51.40109 -3.35794 230 ft 2 kts 123°
2026-05-05 11:18 51.40106 -3.35784 228 ft 0 kts 118°
2026-05-05 11:18 51.40073 -3.35663 226 ft 20 kts 111°
2026-05-05 11:18 51.40013 -3.35443 226 ft 22 kts 115°
2026-05-05 11:19 51.39943 -3.35216 224 ft 24 kts 116°
2026-05-05 11:19 51.39861 -3.34960 226 ft 34 kts 118°
2026-05-05 11:19 51.39830 -3.34742 227 ft 10 kts 46°
2026-05-05 11:19 51.39910 -3.34666 227 ft 18 kts 28°
2026-05-05 11:20 51.40014 -3.34578 233 ft 16 kts 27°
2026-05-05 11:20 51.40110 -3.34502 237 ft 15 kts 25°
2026-05-05 11:20 51.40207 -3.34431 229 ft 12 kts 18°
2026-05-05 11:20 51.40268 -3.34478 229 ft 9 kts 307°
2026-05-05 11:21 51.40280 -3.34571 228 ft 9 kts 267°
2026-05-05 11:21 51.40283 -3.34629 229 ft 0 kts 281°